Wind_Speed
30 32 34 36 38 37 35 34 33 33 34 35 34 34 35 35 36 37 38 38 37 36 35 35 35 36 36 37 38 39 40 40 40 39 35 32 28 25 22 18 16 13 11 10 10 10 10 10 9 8 7 7 6 5 5 6 7 9 9 10 10 9 8 7 7 7 6 6 7 8 10 12 14 14 13 12 12 12 12 12 13 13 13 13 13
30 31 33 35 36 37 37 36 36 37 39 40 40 40 40 40 40 41 41 41 40 39 38 38 38 38 39 41 42 44 44 45 46 47 45 43 39 36 33 29 24 20 17 14 12 10 10 10 10 9 8 7 7 7 6 6 6 7 7 8 9 10 10 9 8 8 8 8 8 8 9 10 12 14 15 15 15 15 15 15 16 16 16 17 17
32 32 33 35 35 36 37 38 38 38 40 42 44 45 45 44 44 43 43 42 40 39 38 38 38 39 41 42 44 45 46 46 47 48 48 48 47 47 45 41 36 32 27 23 19 15 12 9 9 8 8 7 8 8 8 8 8 8 8 8 9 9 10 10 10 9 9 9 9 9 9 9 10 12 13 14 15 15 16 17 17 18 19 20 20
33 33 34 34 35 35 37 39 40 40 41 43 44 45 45 44 43 43 42 41 39 38 38 37 37 38 39 40 41 42 43 44 45 45 45 46 48 50 51 50 47 43 39 34 30 24 19 15 11 8 7 7 8 8 8 8 8 8 9 9 9 9 9 9 10 10 10 10 10 10 10 10 10 10 11 11 13 14 14 15 16 17 18 19 20
33 32 33 33 34 35 36 38 39 40 40 40 40 39 39 38 37 37 37 36 35 35 34 34 34 34 34 35 35 37 38 40 41 41 42 42 44 47 49 50 51 49 48 45 40 36 31 25 20 14 10 7 7 7 8 8 8 8 8 8 8 8 8 7 8 9 10 11 11 11 12 12 12 12 12 13 14 15 16 17 18 18 18 19 19
32 31 31 31 31 32 33 34 35 35 35 34 34 33 32 31 30 30 30 30 29 29 29 28 28 28 29 29 30 32 34 35 36 36 37 39 41 43 44 46 47 49 50 50 48 45 42 38 33 27 21 15 10 8 7 7 7 7 7 7 7 6 6 7 7 7 9 10 11 11 12 13 13 13 14 15 16 17 18 19 20 20 21 21 21
31 30 30 30 28 28 27 27 27 28 28 28 28 27 27 26 26 26 26 25 25 25 25 25 24 23 23 24 26 28 30 32 33 33 34 36 37 39 40 41 42 44 47 49 49 49 48 46 43 39 35 29 23 17 12 9 7 7 7 7 6 6 5 6 7 8 8 9 10 11 12 12 13 15 16 17 18 19 20 21 22 22 23 24 25
31 31 31 29 28 27 25 23 23 22 23 24 24 24 24 24 24 25 25 24 25 26 26 26 25 23 22 22 23 26 27 29 30 31 31 33 34 35 36 36 38 39 41 44 46 48 48 48 46 45 43 40 36 31 26 20 15 11 9 8 8 7 7 6 6 7 8 9 10 12 13 14 16 17 18 19 20 21 21 22 23 23 24 25 25
30 31 30 29 29 29 28 27 25 23 22 21 22 22 23 24 25 26 27 27 28 29 29 29 28 26 23 22 22 23 25 26 27 28 28 29 30 31 32 33 34 36 37 39 41 43 45 46 46 46 45 43 42 40 37 33 29 25 21 18 15 13 11 9 8 7 7 7 9 10 12 13 14 15 16 17 17 18 19 20 20 21 22 22 23
29 29 29 29 29 29 29 29 29 27 25 23 23 23 24 25 26 28 29 30 30 31 31 32 32 30 29 26 23 22 22 23 24 24 24 25 26 27 28 29 30 32 34 36 37 39 40 42 43 44 44 43 43 42 41 39 37 35 32 29 26 23 20 18 15 13 11 9 8 7 7 7 8 9 9 10 11 12 13 13 14 15 16 17 17
27 28 28 28 28 27 28 29 29 29 28 27 26 26 26 27 28 28 29 30 30 30 31 33 34 34 33 31 28 25 23 23 22 21 20 21 22 24 24 25 26 28 30 32 34 35 36 37 38 40 41 41 41 41 41 40 39 38 36 35 33 31 30 28 26 24 22 21 19 18 17 17 16 15 15 15 15 15 14 14 14 14 14 14 15
24 25 25 25 26 25 26 26 27 27 27 27 27 26 27 27 27 27 28 28 29 29 30 32 33 33 34 34 33 31 29 29 27 25 22 20 19 19 20 21 23 25 27 29 30 31 32 33 34 34 36 37 38 39 39 39 39 38 37 36 35 34 33 32 31 30 29 28 27 26 25 24 24 23 22 22 21 21 21 21 21 21 20 20 21
21 22 23 23 23 23 23 23 24 24 24 24 24 24 24 24 25 25 26 27 27 28 29 30 31 32 33 34 33 32 33 33 32 31 29 25 22 19 18 18 20 22 23 25 26 27 28 29 30 30 31 32 33 34 35 36 36 36 36 36 36 35 35 34 33 32 32 31 30 30 29 29 28 28 28 27 27 27 27 26 26 26 25 25 24
19 19 21 21 21 21 21 21 21 21 21 21 21 21 22 21 22 23 24 24 25 26 27 28 28 29 31 32 31 31 32 33 33 33 33 31 30 26 22 19 19 20 20 21 22 23 25 26 26 27 27 28 28 29 30 31 32 33 33 33 33 33 32 32 32 32 32 32 31 31 31 31 31 30 30 30 30 29 29 29 28 28 27 27 27
17 17 18 19 19 19 18 18 18 18 18 19 19 19 19 19 20 21 21 22 23 24 25 25 25 27 29 29 28 29 30 31 31 32 33 33 33 33 31 28 25 23 21 19 19 20 21 22 23 24 24 25 25 25 25 26 27 28 29 29 29 29 29 29 29 30 30 30 30 31 31 30 30 30 30 30 30 30 29 29 29 28 28 29 29
15 15 16 16 16 16 16 16 16 16 16 16 17 17 17 17 18 19 19 20 21 22 23 23 23 25 26 26 26 26 27 28 29 30 31 32 33 33 34 33 32 30 27 24 21 21 20 20 20 21 22 22 22 22 22 23 23 23 24 24 25 26 26 26 27 27 27 28 28 29 29 29 29 29 29 29 29 28 28 27 27 27 27 27 28
13 13 14 13 13 13 13 14 14 14 14 14 14 15 16 16 16 17 17 19 19 20 21 22 22 23 24 24 24 25 26 27 27 28 30 31 31 32 32 33 33 32 32 30 28 26 24 22 20 19 19 19 20 21 21 21 21 20 20 20 21 22 23 24 24 24 25 25 25 25 26 26 26 26 26 25 25 25 24 24 24 25 26 27 29
11 11 11 11 11 11 11 12 12 12 12 12 13 14 14 15 15 16 16 17 18 19 20 21 21 22 23 23 23 24 25 25 26 27 28 29 29 30 31 31 31 31 31 31 31 30 29 27 25 23 21 19 18 18 18 19 19 19 18 18 18 18 19 20 20 21 21 22 22 22 22 22 22 22 22 22 22 23 24 25 26 27 29 30 31
10 10 10 10 10 9 9 10 10 10 10 11 12 12 13 14 14 15 15 16 17 18 19 20 20 21 21 22 22 23 23 24 24 25 26 26 27 28 29 29 30 31 31 31 30 30 30 29 29 28 26 23 20 17 16 16 16 17 17 17 16 16 16 16 17 17 18 18 19 19 19 19 19 19 20 21 22 23 25 26 27 28 29 30 32
10 9 9 8 8 8 8 8 8 8 9 10 11 11 12 13 14 14 15 16 16 17 18 18 19 20 20 21 22 22 23 23 23 23 24 25 26 27 27 28 29 30 30 30 30 30 30 29 29 29 28 27 24 22 18 16 14 14 15 16 16 16 16 15 15 15 15 15 16 16 17 17 18 19 20 21 22 23 24 25 25 27 28 29 31
9 9 8 8 7 7 7 7 7 7 8 9 10 11 12 13 14 14 15 16 16 16 17 18 18 19 20 21 21 22 22 22 23 23 23 24 25 25 26 26 28 29 29 30 30 31 31 31 30 29 28 27 26 25 23 20 17 15 14 14 15 16 16 16 16 15 15 14 14 14 15 15 16 17 18 19 20 21 22 23 24 25 26 28 29
9 8 8 8 7 6 6 6 6 7 7 8 9 10 11 13 14 15 16 16 16 16 17 17 18 19 19 20 20 21 21 21 22 22 22 23 23 24 24 25 27 28 29 30 31 32 33 33 32 31 30 29 27 26 25 23 21 19 17 16 15 15 16 16 17 17 16 16 15 14 14 14 14 15 16 17 19 20 21 22 23 24 25 26 28
9 8 8 8 7 6 5 5 5 5 6 7 8 10 11 12 14 15 16 16 16 17 17 17 17 18 18 19 19 20 20 20 21 22 22 22 23 23 24 25 27 28 29 30 31 32 33 33 33 33 32 31 30 28 26 24 22 21 19 18 17 17 16 16 17 18 18 17 17 16 15 15 15 15 16 18 19 21 22 22 23 24 25 26 27
9 9 8 8 8 6 5 3 3 2 3 5 7 8 10 12 13 14 15 16 17 17 18 18 18 18 18 19 19 19 20 21 21 22 23 24 25 25 26 27 28 29 30 31 32 33 34 34 35 35 35 34 32 31 28 26 23 21 20 19 19 19 19 18 17 17 18 19 19 18 18 17 17 18 18 19 20 21 22 23 24 25 26 27 28
10 9 9 9 8 7 5 4 3 1 1 2 5 7 9 10 12 14 15 16 17 18 19 19 19 19 19 20 20 20 21 21 22 23 24 25 26 27 28 29 29 30 31 32 34 35 36 36 37 37 37 36 35 33 30 27 24 22 20 20 20 20 20 20 19 19 18 19 20 20 19 19 19 19 20 20 21 21 22 23 24 25 26 27 28
11 10 10 10 9 8 7 6 5 4 3 3 4 6 8 10 12 13 15 16 17 18 19 19 20 20 21 21 21 22 22 22 23 23 24 25 26 27 27 28 29 31 32 34 36 37 39 39 40 40 39 38 36 35 32 29 26 24 22 20 20 20 20 21 21 21 20 20 20 20 20 20 20 20 20 21 21 22 23 24 25 25 26 28 29
13 12 11 11 11 10 9 8 7 7 6 6 6 7 9 11 12 14 15 16 17 18 19 19 20 21 22 23 23 23 23 23 24 25 26 26 26 27 28 29 30 32 35 36 38 40 41 42 42 41 40 38 35 34 32 30 27 25 23 21 20 20 21 21 22 22 22 22 21 21 21 21 21 21 21 21 22 23 24 24 25 25 26 28 30
15 14 13 12 12 11 10 10 9 9 8 8 8 9 11 12 13 14 15 17 18 19 19 19 19 21 23 24 24 24 24 25 26 27 27 28 28 29 30 31 33 35 37 39 40 42 43 43 43 41 39 37 34 32 30 29 28 26 25 24 22 21 21 22 22 23 23 23 22 22 21 21 22 21 22 22 23 24 24 25 25 25 26 28 29
17 16 15 14 13 13 12 11 11 10 10 9 10 11 13 14 15 15 16 17 18 19 20 20 20 22 23 24 25 26 25 26 27 28 29 30 30 31 33 35 37 39 40 42 43 44 44 43 41 39 37 35 33 32 30 29 28 28 27 26 25 23 22 22 23 23 23 23 22 22 22 21 21 21 22 22 23 24 25 24 24 25 26 27 29
19 18 17 16 15 14 13 13 12 12 11 11 12 13 14 15 16 17 18 18 19 20 20 21 21 23 24 25 26 27 27 27 28 29 31 32 33 34 36 38 40 42 44 45 45 45 43 41 39 37 36 34 33 32 31 30 29 29 28 27 26 25 24 23 23 24 23 23 22 22 22 21 21 21 21 21 21 23 23 23 24 24 26 28 30
20 19 18 17 17 16 15 14 14 13 13 13 14 15 16 17 18 19 19 20 20 21 21 21 22 23 25 26 27 28 28 29 30 31 33 34 35 36 38 41 43 45 46 46 45 43 41 39 37 36 35 34 33 33 32 31 30 29 29 27 26 25 24 24 24 24 23 22 22 22 22 21 20 20 21 21 21 21 22 23 24 25 27 30 32
21 21 20 19 18 18 17 16 15 15 15 15 16 17 18 18 19 19 20 21 22 22 21 21 22 23 25 27 28 29 30 31 32 34 35 36 37 39 41 43 44 45 45 44 42 40 39 38 37 36 35 34 33 33 33 32 31 30 29 28 26 25 24 23 23 23 23 22 21 21 21 20 20 21 21 22 22 21 21 23 25 27 29 31 34
22 22 22 20 19 18 18 17 17 16 16 17 18 19 20 20 20 20 21 21 22 22 22 22 22 24 25 27 28 29 31 32 33 35 37 38 40 42 44 45 45 44 43 41 39 38 37 37 36 35 34 34 33 33 33 33 32 31 30 28 26 25 23 22 21 21 22 21 21 21 21 20 20 21 22 23 23 22 23 24 26 29 31 33 35
23 23 23 22 20 19 19 19 18 18 18 18 19 21 21 22 22 22 22 22 23 23 22 22 23 24 26 27 29 30 32 33 34 36 38 40 43 44 45 46 45 43 40 38 37 36 35 35 34 34 34 34 34 34 34 34 34 32 31 29 26 25 23 22 20 20 20 20 20 21 21 21 21 21 22 24 24 24 24 25 27 29 32 34 36
25 24 23 23 21 21 21 20 20 20 20 20 21 21 22 23 23 23 24 24 23 23 23 23 24 26 27 28 29 31 32 33 35 37 40 42 44 45 45 44 42 40 39 38 37 35 34 33 32 33 33 34 35 35 35 34 34 33 31 28 26 24 23 21 20 19 18 19 20 20 21 21 21 22 23 24 25 26 26 27 29 30 33 36 38
26 25 24 23 23 23 23 22 22 22 22 23 23 23 23 24 24 24 24 24 24 24 23 23 25 27 28 29 30 32 33 34 36 39 42 43 44 44 42 40 38 37 36 36 35 35 34 34 34 34 34 35 36 36 36 35 35 33 30 27 25 24 23 21 19 18 18 18 19 20 20 21 21 22 23 25 26 27 28 29 30 32 34 37 40
27 26 25 25 24 24 24 24 24 24 25 25 25 25 25 25 25 25 24 25 24 24 25 25 26 28 29 30 31 32 33 35 38 41 42 43 42 40 38 36 35 35 34 34 34 34 34 35 36 37 37 37 37 37 38 38 36 34 30 26 23 22 23 22 20 19 18 18 19 20 21 20 21 22 24 26 27 28 30 32 33 35 36 38 40
28 27 27 26 26 26 26 26 26 26 27 27 27 27 27 26 25 25 25 25 25 25 26 27 28 29 30 31 31 32 34 37 40 42 42 41 38 35 33 32 32 33 33 33 33 33 33 34 36 37 38 38 38 38 39 40 39 36 32 27 23 21 21 21 19 19 19 19 20 21 20 20 21 23 24 27 29 30 32 34 35 37 38 38 38
29 29 28 28 28 27 27 28 28 28 29 29 29 29 28 27 26 26 26 25 25 25 27 28 29 30 31 31 32 33 36 38 41 41 40 37 34 32 31 30 30 31 32 33 33 33 33 33 34 35 36 37 38 38 38 40 40 38 34 30 25 21 21 21 19 18 18 20 21 21 20 21 22 23 25 27 30 32 34 35 36 37 38 37 36
31 30 30 30 29 29 29 30 30 30 31 31 30 30 29 28 27 27 26 26 27 27 28 29 30 30 31 32 33 35 38 40 40 39 35 32 31 30 30 30 30 30 31 31 30 30 31 32 33 34 35 36 36 37 37 38 39 39 37 33 28 24 22 22 20 18 18 20 21 21 21 21 23 24 25 27 30 32 35 36 36 36 36 35 34
32 31 31 31 31 30 31 32 32 32 32 31 31 30 29 29 28 28 27 27 28 28 29 30 30 31 32 33 35 37 39 40 38 34 31 29 29 29 29 29 29 29 29 29 28 28 30 31 32 33 34 35 36 36 35 35 36 37 36 33 30 26 24 23 21 18 18 20 21 21 22 22 25 26 26 28 30 32 34 35 35 35 35 34 34
33 33 33 32 32 32 33 33 34 33 32 31 30 30 29 29 29 29 29 29 29 29 30 31 31 32 33 34 37 39 40 38 34 30 27 27 27 27 27 27 27 27 28 27 26 26 28 30 30 31 32 34 35 35 34 34 34 34 33 32 30 26 23 23 22 18 18 21 23 25 25 24 25 27 28 29 28 30 33 33 32 33 33 34 34
35 34 34 33 33 33 34 34 34 33 32 31 30 30 29 29 30 30 30 30 30 30 30 31 32 33 35 37 39 39 38 33 29 26 25 25 25 26 25 25 25 26 27 27 26 26 28 30 30 30 31 32 34 34 33 32 33 32 31 30 29 26 22 22 22 20 19 21 26 30 31 29 28 29 30 29 28 29 32 31 30 32 33 33 34
35 35 35 34 34 34 34 34 33 32 31 31 31 30 30 30 31 31 32 32 31 31 31 32 33 34 36 39 40 38 34 28 25 23 23 23 24 24 24 25 25 25 26 26 27 28 30 32 33 32 31 31 33 33 32 32 33 33 31 29 27 26 24 22 23 20 18 20 24 31 35 34 33 32 31 29 28 31 33 32 30 31 33 33 33
37 37 36 35 34 34 34 33 32 31 31 31 31 31 31 31 32 33 33 32 32 32 32 33 35 36 38 40 39 35 29 25 23 22 22 23 23 23 24 25 26 25 25 26 28 31 32 34 36 37 35 32 32 32 31 31 33 33 33 31 28 25 23 24 24 20 17 19 23 29 36 37 33 31 31 29 29 32 34 33 32 32 32 32 33
38 38 36 35 35 34 34 33 32 32 32 32 32 32 32 33 33 34 33 32 32 33 34 35 37 39 40 39 35 30 25 22 21 21 22 24 24 24 25 27 28 28 26 26 29 31 32 34 37 39 39 36 34 34 34 33 34 34 32 31 30 26 22 23 25 23 22 22 23 28 35 38 34 31 32 33 34 34 35 35 35 35 34 34 36
40 38 37 36 36 35 33 33 34 34 33 32 33 33 33 34 34 33 33 33 33 34 35 37 39 40 40 37 31 26 23 21 21 22 23 24 25 26 28 30 32 32 29 29 32 32 33 35 38 39 41 40 38 39 39 37 37 38 34 32 32 26 20 21 25 26 27 29 30 33 38 42 41 39 39 39 38 37 38 38 39 38 37 40 44
40 39 39 37 36 34 34 35 35 35 33 33 33 34 35 35 34 33 33 34 34 36 37 39 41 41 38 32 27 24 21 20 21 22 23 25 26 28 30 33 35 35 34 34 35 35 36 39 42 43 44 44 42 42 43 41 40 40 37 35 34 27 20 20 22 24 28 34 38 41 42 45 49 50 49 45 40 38 38 38 38 38 40 45 50
39 39 39 37 36 35 36 37 36 35 34 34 34 35 35 35 34 34 35 35 36 37 39 41 41 39 34 29 25 23 22 21 22 23 24 26 27 28 30 33 36 37 37 37 39 40 41 44 48 49 48 47 46 46 46 45 42 39 36 34 34 29 22 18 18 24 34 43 49 52 50 51 55 58 57 53 46 42 43 41 40 41 45 51 56
38 39 38 37 37 37 37 37 36 35 34 34 35 35 35 35 35 35 36 37 37 39 41 42 40 35 30 26 24 23 23 23 24 24 25 26 27 28 30 33 37 39 38 39 40 42 44 49 54 54 52 50 50 48 46 43 41 40 37 34 34 34 27 22 24 34 46 52 57 60 57 58 64 66 65 62 56 51 50 50 51 54 57 59 61
39 39 39 39 39 39 38 37 36 35 35 35 35 35 35 36 37 37 38 38 39 41 42 40 37 32 28 25 23 24 25 26 26 26 26 26 28 30 31 32 36 39 40 40 40 40 46 54 58 57 56 55 54 52 48 44 44 44 42 38 36 36 33 31 36 44 48 45 48 53 55 57 63 68 69 68 62 56 55 58 59 61 61 61 62
Wind_Direction
73 71 70 70 71 72 73 75 77 78 78 80 80 80 80 80 79 79 78 78 77 76 76 75 75 75 75 74 72 71 69 67 64 60 56 53 49 44 40 33 24 12 359 349 340 334 328 323 321 323 329 333 332 324 310 299 292 284 278 276 273 271 268 261 251 242 243 248 251 255 256 257 259 264 269 275 280 284 287 288 289 289 289 290 290
77 76 75 75 75 76 77 79 80 82 83 84 85 84 84 82 81 80 78 77 77 77 77 77 77 77 76 75 72 70 69 67 66 63 61 59 56 54 52 48 43 37 29 20 7 350 334 322 316 317 325 334 337 336 334 331 326 319 308 298 286 276 266 261 257 248 244 247 251 254 257 258 259 261 263 267 271 276 280 282 285 288 290 291 292
81 79 78 78 79 81 83 84 85 85 87 87 87 86 84 82 80 79 78 77 78 78 78 78 78 77 75 72 69 66 64 63 63 62 62 60 59 57 55 53 51 49 46 41 35 25 10 349 330 321 321 328 333 332 331 332 330 328 322 314 302 286 270 259 255 251 248 249 250 252 258 263 265 266 269 271 274 276 278 281 284 287 289 289 289
81 80 79 80 82 85 87 88 88 89 89 89 88 86 84 82 81 80 80 80 79 79 79 77 76 73 70 67 64 62 60 60 59 59 59 58 58 57 56 54 52 52 51 50 47 44 38 29 14 354 336 326 324 324 326 328 328 326 322 315 307 296 280 264 257 255 253 256 256 256 261 265 267 270 275 281 284 285 287 290 294 295 295 294 292
81 80 80 81 83 86 88 90 91 91 90 89 88 86 85 83 82 82 82 81 79 77 75 73 70 67 64 61 59 58 58 58 57 56 55 54 53 54 54 54 52 52 52 52 52 51 50 47 42 34 22 1 337 323 321 322 324 324 321 316 310 302 292 278 269 260 255 260 265 267 269 271 273 275 279 286 291 292 295 299 301 301 301 301 299
81 80 80 80 82 85 87 90 90 90 89 87 86 84 82 81 80 80 80 78 75 72 68 65 64 61 59 57 56 56 56 55 54 53 53 52 51 50 51 52 53 52 52 52 52 53 53 53 51 49 45 38 25 2 342 330 324 322 318 316 313 309 298 285 279 270 261 263 270 276 278 279 283 284 286 291 295 297 299 302 304 305 305 305 304
81 80 79 78 79 82 85 87 89 87 85 83 81 78 76 74 72 71 70 67 63 59 56 58 60 59 58 56 53 53 53 51 50 50 49 50 51 50 48 48 49 50 50 51 51 52 53 53 54 54 53 51 48 42 31 14 353 339 329 325 324 324 312 290 279 275 272 273 279 286 289 291 294 295 296 297 299 299 301 302 304 304 304 304 304
83 81 79 77 77 77 78 80 82 84 83 80 77 72 67 64 61 60 58 55 53 52 52 55 58 58 57 55 52 50 49 47 46 46 46 48 50 51 49 47 46 46 47 48 49 50 51 52 53 54 55 54 54 53 51 48 41 33 20 10 3 358 352 335 316 303 294 290 290 290 292 294 295 296 297 298 298 298 299 299 299 300 300 302 303
84 82 80 78 76 74 73 73 74 78 81 80 76 70 65 61 58 57 57 56 56 56 56 57 58 58 59 57 53 49 46 43 41 41 42 44 47 49 49 47 45 44 44 46 47 48 48 50 51 53 55 56 56 56 56 56 55 54 51 48 44 38 31 23 12 355 334 318 305 299 297 297 297 299 300 301 301 301 302 302 303 304 304 305 306
85 83 81 78 76 74 72 71 71 73 76 78 76 72 68 66 64 62 62 61 60 59 59 58 58 57 58 57 55 50 44 40 37 36 37 37 42 46 47 46 46 45 43 43 44 45 46 47 49 50 52 55 56 58 58 58 58 58 58 59 59 58 58 57 54 51 47 40 29 17 5 355 349 346 343 340 340 337 334 332 329 328 326 324 322
87 83 80 78 77 76 74 73 71 71 72 73 73 72 71 70 68 67 66 64 62 60 59 59 58 57 57 57 56 52 47 42 37 33 32 32 37 43 44 44 44 44 44 43 42 42 43 44 45 47 50 52 55 57 59 60 60 61 61 62 63 64 64 65 65 65 65 64 63 62 59 56 52 48 44 40 36 32 28 24 21 18 15 14 12
89 84 81 79 79 78 77 75 73 71 70 70 71 71 71 71 70 68 67 65 62 60 59 59 59 58 58 57 56 54 51 49 44 39 35 32 34 38 41 42 42 42 42 42 40 38 38 39 40 43 46 49 53 55 57 59 61 62 63 63 64 65 66 66 67 67 68 68 67 66 65 64 63 62 60 58 57 55 53 52 50 49 47 46 44
91 85 82 81 81 81 80 78 76 73 72 71 71 70 69 69 69 68 66 63 61 60 59 58 58 59 58 57 54 53 52 51 49 46 43 40 38 38 38 38 39 39 38 38 36 34 33 33 34 36 39 43 47 51 54 57 60 61 63 63 64 65 65 66 67 67 67 68 68 69 68 68 67 67 66 65 64 62 61 59 58 56 55 54 53
93 89 86 84 84 84 83 82 79 76 74 71 70 68 68 66 65 64 63 61 59 59 58 56 55 57 57 55 53 51 51 50 49 48 47 45 44 43 41 39 38 37 34 33 31 30 29 29 29 30 33 36 40 44 48 52 56 59 61 63 64 65 67 68 68 69 70 70 71 71 70 70 68 67 66 64 62 61 59 57 56 55 54 54 53
97 94 91 88 86 85 84 82 80 78 74 71 68 66 64 62 61 60 59 58 57 56 56 54 52 53 54 53 51 50 50 49 48 47 47 47 46 46 45 44 41 39 35 29 26 25 24 24 24 24 25 28 31 35 39 43 48 52 55 59 62 64 66 68 69 69 70 70 71 70 69 69 68 66 64 63 61 59 57 56 54 52 51 49 48
101 99 95 91 88 85 82 81 79 76 73 70 67 64 62 58 56 55 54 53 53 52 52 51 49 49 51 51 49 48 47 46 45 44 44 44 44 45 45 45 44 43 40 35 30 26 22 20 20 20 19 19 21 24 27 31 35 40 45 50 54 58 60 62 64 66 67 67 68 68 68 67 66 65 63 62 60 58 57 55 53 51 49 47 45
108 105 101 96 91 87 83 80 77 73 69 66 63 60 59 56 52 49 48 47 46 47 47 45 43 44 45 45 44 43 43 42 41 40 40 40 40 41 41 41 42 42 41 38 35 33 29 25 21 18 15 13 13 14 15 17 20 24 30 35 40 46 52 55 57 60 62 63 63 63 63 63 62 61 61 60 58 57 55 52 50 48 45 42 40
118 114 109 103 98 91 87 82 77 72 66 61 57 54 52 51 49 45 43 42 41 40 40 39 38 38 39 39 38 37 37 37 37 36 37 36 36 36 36 36 36 37 36 35 34 32 30 28 25 21 16 12 8 5 5 5 5 7 11 17 22 29 37 44 49 53 56 58 59 59 59 58 58 58 57 56 55 53 50 47 44 41 38 35 33
130 126 120 112 104 98 91 85 78 70 62 56 52 49 46 45 43 41 38 38 37 35 34 34 33 33 33 33 32 32 31 31 32 32 33 32 31 31 30 29 30 30 30 29 28 27 26 25 24 22 19 15 9 1 356 354 353 352 353 355 359 7 16 24 32 39 45 49 52 53 53 52 52 51 50 49 48 46 44 41 39 36 33 31 29
144 140 134 125 115 106 99 91 82 71 60 53 48 44 42 40 38 36 34 34 34 32 30 30 29 29 28 27 28 27 25 25 26 26 27 26 25 26 25 24 24 24 23 22 21 19 18 18 18 17 15 13 10 5 357 348 340 338 339 338 339 343 350 358 7 15 24 32 38 41 43 42 42 41 41 40 39 38 37 35 33 32 29 27 25
158 155 152 144 132 121 113 104 93 81 68 57 49 43 40 38 36 33 31 31 29 28 27 26 25 25 23 23 23 22 21 20 20 20 20 20 19 20 19 18 18 18 16 15 13 11 10 11 11 9 7 5 4 2 359 351 340 330 325 323 324 327 329 334 340 348 356 4 13 20 26 29 29 29 29 29 29 28 28 27 25 24 22 21 20
173 172 171 164 152 138 125 112 99 85 71 58 47 38 34 32 31 29 27 26 25 24 23 22 21 21 20 19 18 18 16 15 14 14 14 13 13 13 13 12 12 12 10 9 7 5 4 3 2 0 359 357 356 354 353 350 344 335 324 313 309 311 314 316 320 326 332 339 346 353 1 7 12 14 15 15 16 16 16 15 14 13 13 13 13
190 190 189 185 174 159 141 126 106 85 66 51 38 30 25 23 22 22 20 19 18 18 18 17 16 15 15 14 13 13 11 9 8 7 7 7 6 6 5 6 7 6 5 3 1 360 358 356 354 353 350 349 348 346 344 342 340 336 328 316 304 298 298 301 304 308 313 318 323 328 334 341 347 354 358 2 3 4 4 4 3 3 3 5 7
203 205 204 201 195 187 175 161 137 100 65 42 29 19 15 13 12 12 12 11 10 10 11 10 10 9 9 8 8 7 7 5 4 2 1 1 0 0 0 0 1 1 359 357 356 354 352 350 348 346 344 342 340 339 337 334 331 328 325 319 308 296 290 288 290 293 297 302 306 311 317 322 328 334 340 346 351 353 355 355 356 356 357 359 2
216 217 217 215 211 209 209 210 214 219 1 22 16 10 5 2 1 2 2 3 3 4 5 6 6 6 4 4 3 2 2 1 0 359 358 357 357 356 356 356 355 355 354 352 350 348 347 345 343 341 339 337 335 333 331 328 324 321 318 315 309 299 289 283 281 282 284 289 293 298 304 310 317 323 328 333 337 342 345 347 349 350 352 356 358
227 227 227 226 224 225 229 236 247 260 283 320 346 352 352 351 351 351 353 354 356 358 0 2 2 1 1 360 359 358 357 356 356 356 355 354 353 352 351 350 349 349 348 347 346 344 342 341 339 337 336 334 332 330 327 324 320 315 311 307 303 298 291 283 279 277 277 280 285 289 294 300 306 313 320 326 330 333 336 338 341 344 348 352 356
233 235 234 233 233 235 238 245 252 262 277 299 321 332 337 339 341 343 345 347 348 350 353 356 356 356 356 356 355 355 354 352 351 351 351 350 349 348 346 346 345 345 344 343 342 340 339 338 337 336 334 333 331 328 325 321 317 311 305 299 295 292 288 284 278 275 274 276 279 284 288 292 297 304 311 317 323 327 329 332 334 338 343 348 353
237 240 241 239 240 241 244 249 254 260 272 289 306 318 324 328 330 335 338 341 342 343 345 347 349 351 352 353 353 352 351 349 348 347 346 345 345 344 343 342 342 343 342 340 339 338 337 336 336 335 335 333 331 329 325 321 315 309 302 296 291 287 284 281 279 276 274 275 277 281 286 290 295 299 304 309 315 320 324 327 330 334 339 344 349
241 244 245 245 245 245 247 252 258 263 271 285 299 308 314 318 322 326 331 335 337 337 338 339 342 345 348 349 350 349 348 346 344 343 342 341 341 340 340 341 341 341 340 339 338 337 337 336 336 336 336 335 334 332 329 325 320 314 308 300 292 286 282 280 278 277 276 276 277 280 285 289 294 298 301 305 310 314 318 322 326 331 336 342 348
243 246 248 249 250 249 250 254 259 265 272 283 293 301 307 311 316 320 324 328 331 332 333 334 337 340 343 345 346 346 344 342 340 339 339 338 339 339 340 340 339 339 338 337 337 337 337 337 338 338 338 337 336 334 332 330 326 322 316 308 298 290 284 280 278 276 276 276 276 278 281 285 290 295 299 303 307 310 315 320 325 331 337 342 347
244 247 250 251 252 253 254 256 260 266 273 281 288 295 301 306 311 316 319 322 324 327 328 330 333 336 339 341 342 342 340 338 337 337 337 337 337 338 339 338 338 337 336 336 336 337 338 339 339 339 339 338 337 335 333 331 328 325 321 314 305 296 287 281 278 275 274 274 275 275 277 281 287 292 296 302 306 309 316 323 328 335 340 344 348
245 247 250 251 252 254 256 259 262 267 274 282 288 292 296 301 306 310 314 317 319 322 324 326 328 332 335 337 338 338 336 335 335 335 335 336 337 337 337 336 336 335 335 336 337 338 339 340 340 340 339 338 336 334 333 331 329 326 322 317 310 301 292 284 279 276 274 274 276 277 279 281 286 290 293 299 305 312 320 328 334 339 342 344 347
244 247 250 251 252 253 256 261 264 268 274 281 286 291 295 299 303 306 309 312 316 318 321 323 325 328 332 334 334 334 333 333 333 334 334 335 336 336 335 335 335 335 336 337 338 339 339 340 339 339 338 337 336 335 333 332 330 328 323 319 313 305 296 288 281 277 275 275 278 282 285 286 288 290 293 298 306 314 322 330 336 339 341 343 346
244 247 249 251 252 253 256 260 264 268 272 277 283 288 294 298 302 305 308 310 313 316 318 320 323 326 329 330 330 330 331 332 332 333 334 335 335 334 334 334 335 336 337 338 339 339 340 340 339 337 336 337 337 336 336 334 333 331 326 322 316 309 302 294 287 281 276 275 278 283 286 289 291 293 296 300 307 314 322 329 334 337 340 342 344
243 245 248 250 252 254 257 261 265 269 272 277 281 287 292 298 302 305 308 310 313 315 317 319 322 324 325 326 326 328 329 330 331 333 333 334 333 332 332 334 336 337 338 339 340 342 342 342 341 338 338 339 339 338 338 338 336 334 330 326 322 315 307 300 293 287 281 276 277 281 286 290 294 298 302 304 309 316 323 329 331 334 338 340 341
241 243 245 248 251 255 260 264 268 272 277 280 284 288 292 297 301 304 307 310 313 315 316 318 320 321 321 323 325 327 328 329 331 332 332 332 331 331 333 335 337 338 339 340 343 345 345 344 343 342 341 341 341 340 340 341 340 338 334 331 329 322 314 307 300 292 284 277 277 281 286 290 293 299 304 308 313 318 324 329 331 333 336 339 340
240 241 243 246 251 256 261 266 270 275 279 283 287 290 293 296 299 303 306 309 312 314 315 317 317 317 318 321 323 325 327 329 330 330 330 330 330 332 334 336 338 339 340 342 345 345 346 345 343 344 344 343 343 343 344 344 343 342 339 337 337 330 320 313 307 299 289 281 279 282 286 289 292 298 305 312 318 322 326 329 332 333 334 337 339
240 241 243 247 251 256 261 266 272 276 281 285 288 290 293 295 298 302 305 309 312 313 314 313 314 314 317 319 322 324 327 329 329 328 328 328 330 332 335 337 339 340 341 342 344 345 344 344 343 343 343 344 344 346 346 346 345 345 343 341 342 337 325 317 311 304 297 288 283 285 289 292 294 298 308 318 323 325 329 331 332 333 334 335 337
239 241 244 248 253 257 262 267 272 277 281 285 289 291 293 296 298 302 306 309 310 310 309 310 311 313 316 318 321 323 326 327 327 327 327 328 331 334 336 338 339 340 341 342 343 343 341 342 342 341 343 343 344 346 347 347 346 346 345 343 344 341 330 320 314 310 305 296 290 292 297 298 297 301 312 323 326 328 330 331 331 331 331 332 334
239 242 246 250 254 258 263 267 272 276 281 285 289 292 295 297 301 305 307 308 307 306 306 307 309 312 315 318 321 323 325 326 325 326 327 329 332 335 338 339 339 340 342 343 344 343 341 342 342 342 342 342 343 345 347 347 345 346 346 343 342 343 336 327 324 323 317 309 304 304 305 303 299 302 312 321 325 328 328 329 329 329 327 328 330
240 244 247 251 256 260 265 269 273 277 282 286 289 292 295 299 303 306 306 305 304 304 305 306 309 311 314 317 320 323 324 325 325 325 327 330 334 337 338 338 338 340 342 344 345 344 340 342 344 343 342 342 342 343 346 346 344 345 345 342 339 341 340 336 337 340 334 326 321 317 314 311 308 306 308 313 319 323 324 324 325 325 325 324 325
243 246 249 253 258 262 267 271 276 280 284 287 290 293 297 301 303 304 303 302 302 303 304 306 309 311 314 317 320 321 323 323 324 325 329 333 335 336 336 335 336 339 340 343 345 343 339 340 343 343 341 340 340 341 343 343 340 341 343 340 336 336 338 337 338 345 347 341 335 327 320 317 315 311 305 305 311 316 317 319 323 324 323 322 322
245 248 252 256 260 264 270 275 279 282 285 287 290 294 298 300 301 300 299 300 301 302 304 306 308 312 315 317 319 320 321 321 322 325 330 333 333 332 331 331 334 337 339 341 344 343 338 338 340 341 340 339 338 338 339 338 335 336 338 337 333 328 329 332 332 338 350 353 346 337 327 321 322 318 307 302 307 310 311 317 323 324 323 322 320
247 250 254 258 262 267 272 277 279 281 283 286 289 293 296 297 297 296 297 299 300 302 304 306 309 312 314 316 318 319 319 319 322 326 330 329 328 328 327 329 333 337 339 340 342 341 337 336 338 338 337 337 334 334 338 337 332 331 333 334 331 323 319 323 326 331 346 354 351 343 336 334 335 328 313 306 307 306 307 315 322 323 323 324 322
248 251 255 259 264 269 273 276 278 279 282 285 288 291 292 293 293 294 296 298 300 301 304 306 309 311 314 316 317 316 316 318 322 326 326 324 323 325 326 329 333 336 338 339 339 338 334 334 336 334 332 333 331 331 336 337 332 330 330 328 325 320 315 313 316 320 328 338 344 341 335 335 336 329 317 311 308 303 302 307 314 317 318 321 323
249 253 257 261 265 269 272 275 277 279 281 283 287 288 289 290 291 293 296 297 299 301 304 307 309 311 313 314 314 312 314 318 322 323 322 321 321 324 328 330 332 336 339 340 338 334 331 333 334 331 328 329 328 327 328 328 324 323 324 323 318 315 314 309 306 308 312 319 329 332 330 330 327 320 313 309 305 301 298 300 306 310 312 314 319
251 255 258 261 264 267 271 274 275 277 280 282 285 286 287 289 291 293 294 296 298 301 304 307 309 311 312 311 309 309 313 318 320 319 318 318 321 326 330 331 333 337 341 342 339 333 331 333 332 329 327 327 328 327 324 320 316 313 316 316 310 310 317 310 301 301 305 309 315 319 321 320 316 312 309 305 301 297 294 296 302 307 308 311 315
251 254 256 259 261 265 268 270 272 275 279 281 283 284 286 288 290 291 293 295 298 301 304 306 308 309 309 307 305 307 311 315 315 315 315 317 322 328 331 332 333 336 341 343 340 334 333 334 331 329 327 326 327 327 322 318 316 313 313 311 304 305 315 312 307 311 312 312 311 308 305 302 300 300 300 298 297 296 295 297 302 305 307 310 313
249 252 255 256 259 261 263 267 271 275 278 279 280 282 285 287 288 289 291 294 298 301 304 305 306 306 304 302 303 306 310 312 312 312 314 318 322 328 332 332 333 335 340 342 340 336 336 335 330 329 328 326 326 326 322 319 318 315 312 306 297 298 304 298 300 310 304 296 291 285 281 280 280 282 283 283 284 288 291 294 298 300 303 306 307
248 250 253 255 257 259 262 266 271 274 275 276 279 282 283 284 286 288 291 295 298 301 302 302 303 302 299 298 302 306 308 308 309 310 312 317 321 326 331 332 332 332 337 340 339 337 337 334 330 328 327 325 325 324 322 321 320 317 314 306 294 292 292 276 274 290 290 284 280 276 271 270 270 270 271 272 273 276 281 286 290 291 294 298 301
246 249 252 254 257 260 263 267 269 271 273 276 278 280 281 282 285 288 291 295 298 299 300 300 299 296 294 296 301 304 306 307 308 310 313 318 322 325 329 331 330 330 334 338 338 338 336 332 328 326 325 323 322 321 319 317 316 315 315 311 300 292 285 271 270 281 283 281 281 276 267 262 263 265 268 270 273 277 280 283 285 286 289 294 296
Height
10965 10964 10964 10962 10960 10960 10960 10959 10959 10959 10959 10959 10958 10958 10957 10957 10957 10956 10955 10955 10955 10955 10956 10956 10955 10955 10954 10953 10952 10950 10949 10947 10946 10944 10943 10941 10940 10938 10936 10934 10933 10932 10931 10929 10928 10927 10927 10927 10926 10926 10926 10925 10925 10926 10926 10926 10926 10927 10927 10927 10928 10928 10928 10928 10928 10928 10928 10928 10928 10928 10928 10928 10928 10927 10927 10927 10927 10926 10926 10925 10925 10924 10924 10924 10923
10968 10968 10967 10966 10964 10964 10964 10963 10963 10963 10963 10963 10963 10962 10962 10962 10961 10960 10959 10959 10959 10959 10959 10959 10958 10958 10957 10956 10955 10953 10952 10950 10949 10947 10945 10944 10943 10941 10939 10937 10935 10934 10932 10930 10928 10927 10927 10926 10926 10925 10925 10925 10925 10925 10925 10926 10926 10926 10927 10927 10927 10928 10928 10928 10928 10928 10928 10928 10928 10928 10927 10927 10927 10926 10926 10926 10926 10926 10925 10925 10925 10924 10924 10924 10923
10972 10971 10970 10969 10969 10969 10968 10967 10967 10968 10968 10967 10967 10967 10966 10966 10965 10964 10963 10963 10963 10963 10963 10963 10962 10961 10960 10959 10958 10956 10955 10953 10952 10950 10949 10948 10947 10945 10942 10940 10938 10936 10934 10931 10929 10928 10927 10927 10926 10925 10925 10925 10925 10925 10925 10925 10926 10926 10926 10926 10926 10927 10927 10927 10927 10928 10927 10927 10927 10927 10927 10927 10926 10926 10926 10926 10926 10925 10925 10925 10925 10924 10924 10923 10923
10975 10974 10974 10973 10973 10972 10972 10971 10971 10971 10971 10971 10970 10970 10970 10969 10969 10968 10968 10967 10967 10967 10967 10966 10965 10964 10963 10962 10961 10960 10958 10957 10955 10954 10953 10952 10950 10948 10946 10943 10941 10939 10936 10934 10932 10930 10929 10927 10926 10926 10925 10925 10925 10925 10925 10926 10926 10926 10926 10926 10926 10926 10926 10926 10927 10927 10927 10927 10927 10927 10927 10927 10926 10926 10926 10926 10926 10925 10925 10925 10925 10924 10923 10923 10922
10978 10977 10977 10976 10976 10976 10975 10975 10974 10975 10974 10974 10974 10973 10973 10973 10972 10972 10971 10971 10971 10970 10970 10969 10968 10967 10967 10966 10965 10963 10962 10960 10958 10958 10957 10956 10954 10951 10949 10947 10945 10943 10940 10937 10935 10933 10931 10930 10928 10927 10926 10926 10926 10926 10926 10926 10926 10926 10926 10926 10925 10925 10925 10925 10926 10926 10927 10927 10927 10927 10927 10927 10927 10927 10927 10926 10926 10925 10925 10925 10924 10923 10923 10922 10921
10980 10980 10979 10979 10979 10979 10978 10978 10978 10978 10977 10977 10977 10976 10976 10975 10975 10974 10974 10974 10974 10973 10973 10972 10971 10970 10969 10968 10967 10966 10964 10962 10961 10961 10960 10958 10956 10954 10952 10951 10949 10947 10945 10942 10940 10937 10935 10933 10931 10929 10928 10927 10927 10926 10926 10926 10926 10926 10926 10925 10925 10924 10924 10925 10925 10925 10926 10926 10926 10926 10926 10926 10926 10926 10926 10926 10925 10925 10924 10923 10923 10922 10921 10920 10920
10983 10982 10981 10981 10981 10981 10981 10981 10981 10980 10980 10980 10979 10979 10978 10978 10977 10977 10976 10976 10976 10976 10975 10974 10973 10973 10972 10971 10970 10968 10967 10965 10964 10964 10963 10961 10959 10958 10957 10955 10954 10951 10949 10947 10945 10942 10940 10937 10935 10932 10931 10930 10929 10928 10928 10927 10927 10927 10926 10926 10925 10925 10925 10925 10925 10925 10925 10926 10926 10926 10926 10926 10926 10925 10925 10925 10924 10923 10923 10922 10921 10920 10919 10918 10917
10986 10985 10984 10984 10984 10983 10983 10983 10983 10982 10982 10982 10982 10981 10980 10980 10979 10979 10979 10978 10978 10977 10976 10975 10974 10975 10974 10973 10972 10970 10969 10968 10967 10967 10966 10964 10963 10962 10961 10960 10958 10956 10953 10951 10949 10947 10945 10942 10940 10937 10935 10934 10932 10931 10930 10929 10929 10928 10927 10927 10926 10926 10926 10925 10925 10925 10926 10926 10926 10926 10925 10925 10925 10924 10924 10923 10922 10922 10921 10920 10919 10919 10918 10917 10916
10988 10987 10987 10987 10986 10986 10985 10985 10985 10984 10984 10984 10984 10983 10982 10982 10981 10981 10980 10980 10979 10978 10977 10977 10976 10976 10975 10974 10974 10972 10971 10971 10970 10969 10968 10968 10966 10965 10964 10963 10961 10959 10958 10956 10953 10951 10949 10947 10945 10943 10941 10939 10937 10935 10934 10933 10931 10930 10930 10929 10928 10927 10927 10927 10926 10926 10926 10926 10926 10926 10925 10925 10924 10923 10923 10922 10921 10920 10920 10919 10918 10917 10917 10916 10915
10990 10990 10990 10989 10989 10989 10988 10987 10987 10987 10986 10986 10986 10986 10985 10984 10984 10983 10983 10982 10981 10981 10980 10979 10978 10977 10976 10975 10975 10974 10974 10973 10972 10971 10971 10970 10969 10968 10967 10966 10965 10963 10961 10959 10958 10956 10954 10952 10951 10949 10947 10945 10943 10941 10939 10937 10935 10934 10933 10932 10931 10930 10929 10928 10928 10927 10927 10926 10926 10925 10925 10924 10924 10923 10922 10921 10920 10920 10919 10918 10917 10916 10916 10915 10914
10992 10992 10992 10991 10991 10991 10991 10990 10990 10989 10989 10988 10988 10988 10988 10987 10986 10986 10986 10985 10985 10984 10982 10981 10980 10979 10978 10977 10977 10977 10976 10975 10974 10973 10973 10972 10971 10970 10970 10969 10968 10966 10964 10963 10961 10960 10958 10957 10956 10954 10952 10951 10949 10946 10944 10942 10941 10939 10938 10936 10935 10934 10932 10931 10930 10929 10928 10927 10927 10926 10925 10924 10924 10923 10922 10921 10921 10920 10919 10918 10918 10917 10916 10915 10914
10994 10994 10994 10993 10994 10994 10994 10993 10992 10992 10991 10991 10991 10990 10990 10990 10989 10989 10989 10989 10988 10987 10985 10984 10982 10981 10980 10980 10979 10979 10978 10977 10976 10975 10974 10973 10973 10972 10972 10972 10971 10969 10967 10965 10964 10963 10962 10961 10960 10959 10958 10956 10954 10952 10950 10948 10947 10945 10943 10942 10940 10938 10936 10935 10934 10932 10931 10930 10929 10928 10927 10926 10925 10925 10924 10923 10922 10922 10921 10920 10919 10918 10917 10916 10915
10996 10996 10996 10996 10996 10996 10996 10996 10995 10995 10994 10994 10994 10993 10993 10992 10992 10992 10991 10991 10991 10990 10988 10987 10986 10984 10983 10982 10982 10982 10981 10980 10979 10978 10977 10976 10975 10974 10974 10973 10972 10971 10969 10968 10967 10966 10965 10964 10964 10963 10962 10960 10959 10957 10956 10954 10952 10950 10949 10947 10945 10943 10941 10940 10938 10936 10934 10933 10932 10931 10930 10929 10928 10927 10926 10925 10924 10924 10923 10922 10921 10920 10919 10918 10917
10998 10998 10998 10998 10998 10998 10998 10998 10998 10997 10997 10996 10996 10995 10995 10994 10994 10993 10993 10993 10993 10992 10990 10990 10989 10987 10985 10985 10985 10985 10983 10983 10982 10982 10981 10979 10977 10976 10975 10974 10973 10972 10971 10970 10970 10969 10968 10967 10966 10965 10965 10963 10962 10961 10960 10959 10957 10955 10953 10951 10949 10948 10946 10944 10942 10940 10939 10937 10936 10934 10933 10932 10930 10929 10928 10927 10926 10925 10924 10923 10922 10921 10920 10919 10918
11000 11000 11000 11000 11000 11000 11000 11000 11000 10999 10999 10998 10998 10997 10996 10996 10995 10995 10995 10995 10995 10994 10993 10992 10992 10990 10988 10988 10988 10988 10987 10986 10985 10985 10984 10982 10980 10979 10977 10976 10974 10973 10972 10972 10972 10971 10970 10969 10969 10968 10967 10966 10965 10964 10963 10962 10960 10959 10957 10956 10954 10952 10950 10948 10946 10944 10942 10941 10939 10937 10936 10934 10933 10931 10930 10929 10928 10927 10926 10924 10924 10923 10921 10920 10919
11002 11002 11002 11002 11002 11002 11002 11002 11001 11001 11001 11000 11000 10999 10998 10998 10997 10997 10997 10996 10996 10995 10995 10994 10994 10992 10991 10990 10991 10990 10989 10988 10988 10987 10985 10984 10983 10981 10979 10977 10976 10975 10974 10974 10973 10972 10972 10971 10970 10969 10968 10967 10966 10965 10964 10963 10962 10961 10960 10959 10957 10956 10953 10951 10949 10947 10945 10944 10942 10940 10938 10937 10935 10933 10932 10931 10929 10928 10927 10926 10925 10924 10923 10921 10920
11004 11004 11004 11004 11004 11004 11003 11003 11003 11002 11002 11002 11001 11001 11000 11000 10999 10999 10998 10997 10997 10997 10996 10996 10995 10994 10993 10992 10992 10992 10991 10990 10989 10988 10987 10985 10984 10983 10981 10980 10978 10977 10977 10976 10975 10974 10973 10972 10971 10970 10969 10968 10967 10966 10965 10965 10964 10963 10962 10961 10959 10958 10956 10954 10952 10950 10948 10946 10944 10942 10941 10939 10937 10936 10934 10933 10931 10930 10929 10928 10926 10925 10923 10922 10920
11005 11006 11006 11006 11005 11005 11005 11004 11004 11004 11004 11003 11003 11002 11002 11001 11001 11000 11000 10999 10998 10998 10997 10997 10996 10995 10994 10994 10993 10993 10992 10991 10991 10990 10988 10987 10986 10985 10983 10982 10981 10980 10979 10978 10977 10976 10975 10973 10972 10971 10970 10969 10968 10967 10966 10965 10965 10964 10963 10962 10961 10959 10957 10956 10954 10952 10950 10948 10946 10945 10943 10941 10940 10938 10936 10935 10933 10932 10930 10928 10927 10925 10923 10921 10919
11007 11007 11007 11007 11007 11006 11006 11006 11005 11005 11005 11004 11004 11003 11003 11003 11002 11002 11001 11001 11000 10999 10999 10998 10997 10996 10996 10995 10995 10994 10993 10993 10992 10991 10990 10989 10988 10986 10985 10984 10982 10981 10980 10979 10978 10977 10976 10975 10973 10972 10971 10970 10969 10968 10967 10966 10965 10964 10963 10962 10961 10960 10958 10957 10955 10954 10952 10950 10948 10946 10944 10943 10941 10940 10938 10936 10934 10932 10930 10928 10926 10925 10923 10921 10919
11007 11008 11008 11008 11008 11008 11007 11007 11007 11006 11006 11005 11005 11004 11004 11004 11003 11003 11003 11002 11001 11001 11000 11000 10999 10998 10998 10997 10996 10995 10995 10994 10993 10992 10991 10990 10988 10987 10986 10985 10983 10982 10981 10980 10980 10979 10978 10976 10974 10973 10971 10970 10969 10968 10966 10965 10964 10963 10962 10962 10961 10960 10959 10957 10956 10954 10953 10951 10949 10947 10945 10944 10942 10940 10938 10936 10934 10932 10931 10929 10927 10925 10923 10921 10918
11008 11009 11009 11009 11009 11009 11008 11008 11008 11007 11007 11006 11006 11005 11005 11005 11005 11004 11004 11003 11002 11002 11002 11001 11001 11000 10999 10998 10997 10996 10996 10995 10994 10992 10991 10990 10989 10988 10987 10985 10984 10983 10982 10981 10980 10979 10978 10976 10974 10973 10972 10970 10969 10967 10966 10965 10964 10962 10961 10960 10960 10959 10958 10957 10956 10954 10953 10951 10950 10948 10946 10944 10942 10941 10939 10937 10935 10933 10931 10929 10927 10925 10923 10920 10918
11008 11009 11009 11010 11010 11009 11009 11009 11009 11008 11008 11008 11007 11007 11006 11006 11005 11005 11005 11004 11004 11003 11003 11002 11002 11001 11000 10999 10998 10997 10997 10996 10994 10993 10992 10991 10990 10989 10988 10986 10985 10983 10982 10981 10980 10978 10977 10975 10974 10973 10971 10970 10968 10967 10965 10963 10962 10961 10959 10958 10958 10957 10956 10956 10955 10954 10952 10951 10949 10948 10946 10944 10943 10941 10939 10937 10935 10933 10931 10929 10927 10925 10922 10920 10918
11008 11009 11009 11010 11010 11010 11010 11009 11009 11009 11009 11008 11008 11008 11007 11006 11006 11006 11006 11005 11005 11004 11004 11003 11002 11002 11001 11000 10999 10998 10997 10995 10994 10993 10992 10991 10990 10989 10988 10987 10985 10984 10982 10981 10979 10978 10977 10975 10973 10972 10971 10969 10967 10965 10964 10962 10961 10959 10957 10956 10955 10955 10954 10953 10953 10952 10951 10949 10948 10947 10945 10944 10942 10941 10939 10937 10934 10933 10931 10929 10927 10924 10922 10920 10917
11008 11009 11009 11010 11010 11010 11010 11010 11009 11009 11009 11009 11009 11008 11008 11007 11007 11007 11006 11006 11006 11005 11004 11004 11003 11002 11001 11000 10998 10997 10996 10995 10994 10993 10991 10990 10989 10988 10986 10985 10984 10983 10981 10980 10979 10978 10976 10974 10973 10971 10969 10967 10965 10964 10962 10960 10958 10957 10955 10954 10953 10952 10951 10951 10950 10949 10949 10948 10946 10945 10944 10943 10941 10940 10938 10936 10934 10932 10930 10928 10926 10924 10921 10919 10917
11008 11009 11009 11009 11009 11010 11010 11009 11009 11009 11009 11009 11009 11009 11009 11008 11008 11007 11007 11007 11006 11006 11005 11004 11003 11002 11000 10999 10998 10997 10996 10995 10994 10992 10991 10990 10988 10987 10986 10984 10983 10982 10981 10979 10978 10976 10974 10972 10970 10969 10966 10964 10962 10960 10959 10957 10955 10954 10952 10951 10950 10949 10948 10947 10947 10946 10946 10945 10944 10943 10942 10941 10940 10938 10936 10935 10933 10931 10929 10927 10925 10923 10920 10918 10915
11007 11008 11009 11009 11009 11009 11009 11009 11009 11009 11009 11009 11009 11009 11009 11009 11008 11008 11007 11007 11006 11006 11005 11004 11003 11001 11000 10999 10997 10996 10995 10994 10993 10992 10991 10990 10989 10988 10986 10985 10983 10982 10980 10979 10977 10974 10972 10969 10967 10965 10963 10961 10958 10956 10954 10952 10951 10950 10949 10948 10947 10946 10945 10944 10944 10943 10942 10942 10941 10940 10940 10938 10937 10936 10934 10933 10931 10929 10928 10926 10923 10921 10919 10917 10914
11007 11008 11008 11008 11008 11009 11009 11009 11009 11009 11009 11009 11009 11009 11009 11008 11008 11008 11007 11007 11006 11005 11005 11004 11002 11001 11000 10998 10997 10996 10994 10993 10992 10991 10991 10990 10989 10987 10986 10984 10983 10981 10979 10977 10975 10972 10969 10967 10964 10961 10959 10956 10954 10952 10950 10948 10947 10946 10945 10944 10944 10943 10942 10941 10940 10940 10939 10939 10938 10937 10937 10936 10935 10933 10932 10931 10929 10928 10926 10924 10922 10920 10918 10915 10913
11006 11007 11007 11008 11008 11008 11008 11008 11008 11008 11008 11008 11008 11008 11008 11008 11008 11007 11007 11006 11005 11004 11004 11003 11002 11001 10999 10998 10997 10995 10994 10993 10991 10990 10989 10988 10987 10986 10984 10983 10981 10979 10977 10975 10972 10969 10966 10963 10960 10958 10955 10953 10951 10949 10947 10945 10943 10942 10941 10940 10939 10939 10938 10937 10937 10936 10936 10935 10935 10934 10934 10933 10932 10931 10930 10929 10928 10926 10925 10923 10921 10919 10917 10914 10911
11006 11006 11007 11007 11008 11008 11008 11008 11008 11008 11008 11008 11008 11008 11007 11007 11007 11006 11006 11006 11005 11003 11002 11001 11001 11000 10999 10998 10996 10995 10994 10992 10991 10989 10988 10986 10985 10984 10982 10980 10978 10976 10974 10971 10968 10966 10963 10960 10957 10954 10952 10950 10947 10946 10944 10942 10941 10939 10938 10937 10936 10935 10934 10934 10933 10932 10932 10932 10931 10931 10931 10930 10929 10929 10928 10927 10926 10925 10923 10922 10920 10918 10915 10913 10910
11005 11005 11006 11007 11007 11007 11007 11007 11007 11007 11007 11007 11007 11007 11007 11006 11006 11006 11005 11004 11004 11003 11001 11000 10999 10998 10997 10996 10995 10994 10993 10991 10990 10988 10986 10985 10983 10981 10979 10977 10974 10972 10969 10967 10964 10961 10959 10956 10954 10951 10949 10947 10944 10942 10941 10939 10938 10936 10935 10933 10932 10931 10931 10930 10929 10929 10928 10928 10928 10928 10928 10927 10927 10926 10926 10925 10924 10923 10922 10920 10919 10916 10914 10912 10909
11004 11004 11005 11005 11006 11006 11007 11007 11007 11007 11007 11006 11006 11006 11006 11006 11005 11005 11004 11003 11003 11002 11001 11000 10998 10997 10996 10995 10993 10992 10991 10989 10988 10986 10984 10982 10981 10979 10977 10974 10972 10969 10966 10963 10960 10958 10955 10953 10950 10948 10946 10944 10942 10939 10938 10936 10934 10933 10931 10930 10929 10928 10927 10926 10926 10925 10925 10925 10925 10925 10925 10924 10924 10924 10924 10923 10923 10922 10920 10919 10917 10915 10912 10910 10907
11002 11003 11004 11004 11005 11005 11005 11006 11006 11006 11006 11005 11005 11005 11005 11005 11005 11004 11003 11002 11001 11001 11000 10999 10997 10996 10995 10994 10992 10990 10989 10987 10985 10983 10981 10980 10978 10976 10974 10971 10969 10966 10963 10960 10957 10954 10952 10950 10948 10946 10944 10942 10939 10937 10935 10933 10931 10929 10928 10926 10925 10923 10923 10922 10922 10922 10922 10922 10922 10922 10922 10922 10921 10921 10921 10921 10921 10920 10918 10917 10915 10912 10910 10908 10905
11000 11001 11002 11003 11003 11004 11004 11005 11005 11005 11005 11005 11004 11004 11003 11004 11003 11003 11002 11001 11000 10999 10998 10997 10996 10995 10994 10992 10991 10989 10987 10985 10983 10981 10978 10976 10974 10972 10970 10967 10965 10963 10960 10958 10955 10952 10950 10948 10945 10943 10941 10939 10937 10934 10932 10930 10928 10926 10924 10922 10920 10919 10918 10918 10919 10919 10919 10919 10919 10919 10919 10919 10919 10919 10919 10918 10918 10917 10916 10914 10912 10910 10907 10905 10903
10998 10999 11000 11001 11002 11002 11003 11003 11003 11003 11004 11004 11003 11003 11002 11002 11002 11001 11000 11000 10999 10998 10997 10996 10995 10993 10992 10991 10989 10988 10986 10984 10981 10979 10976 10974 10972 10969 10966 10963 10961 10959 10957 10955 10953 10951 10949 10946 10944 10941 10938 10936 10934 10931 10929 10927 10924 10922 10920 10918 10917 10915 10915 10914 10915 10915 10916 10916 10916 10916 10916 10916 10916 10916 10916 10916 10915 10914 10913 10911 10909 10907 10905 10903 10900
10995 10996 10998 10998 10999 11000 11001 11001 11001 11002 11002 11002 11002 11002 11001 11001 11000 10999 10999 10998 10997 10996 10995 10994 10993 10992 10991 10989 10988 10986 10984 10982 10979 10977 10974 10972 10969 10966 10964 10961 10958 10956 10954 10952 10950 10948 10946 10944 10942 10939 10936 10934 10931 10928 10926 10924 10921 10918 10916 10914 10913 10912 10911 10911 10911 10911 10912 10913 10913 10913 10913 10913 10913 10913 10913 10913 10912 10911 10910 10908 10906 10904 10902 10900 10898
10993 10994 10995 10996 10997 10998 10998 10999 10999 10999 11000 11000 11000 11000 11000 10999 10999 10998 10997 10996 10995 10994 10993 10992 10991 10990 10988 10987 10986 10984 10982 10980 10977 10975 10973 10970 10967 10964 10961 10959 10957 10954 10952 10950 10948 10945 10942 10940 10938 10936 10934 10931 10928 10925 10923 10921 10918 10915 10913 10911 10910 10909 10908 10908 10908 10908 10909 10910 10910 10910 10910 10911 10911 10910 10910 10910 10909 10908 10906 10905 10904 10902 10900 10898 10895
10990 10991 10993 10994 10995 10995 10996 10996 10997 10997 10998 10998 10998 10998 10998 10998 10997 10996 10996 10994 10993 10992 10990 10990 10989 10988 10986 10985 10984 10982 10980 10978 10975 10973 10971 10968 10965 10962 10959 10957 10955 10952 10950 10948 10946 10943 10940 10937 10934 10931 10929 10927 10925 10922 10919 10917 10915 10912 10910 10909 10908 10907 10906 10906 10906 10906 10907 10907 10907 10907 10908 10908 10908 10908 10908 10908 10907 10906 10904 10902 10901 10899 10897 10895 10893
10988 10989 10990 10991 10992 10993 10994 10994 10995 10995 10995 10995 10996 10996 10996 10996 10995 10995 10994 10993 10992 10990 10988 10987 10986 10985 10984 10983 10982 10980 10978 10976 10973 10970 10968 10965 10963 10961 10959 10956 10953 10951 10949 10946 10944 10942 10939 10936 10933 10930 10927 10925 10922 10920 10918 10914 10912 10910 10908 10907 10906 10906 10904 10904 10905 10905 10905 10905 10905 10905 10906 10906 10906 10906 10906 10905 10904 10903 10901 10900 10898 10896 10894 10892 10891
10985 10987 10988 10989 10990 10991 10992 10993 10993 10993 10993 10993 10993 10993 10993 10993 10993 10992 10991 10990 10989 10988 10987 10985 10984 10983 10982 10981 10979 10978 10976 10974 10971 10968 10965 10962 10960 10958 10956 10954 10952 10950 10948 10945 10943 10940 10938 10936 10933 10930 10927 10924 10921 10919 10917 10914 10911 10909 10907 10906 10905 10905 10903 10903 10903 10904 10904 10904 10904 10904 10905 10905 10904 10904 10904 10903 10902 10900 10899 10897 10895 10893 10891 10890 10888
10982 10984 10985 10986 10987 10989 10990 10991 10991 10991 10991 10991 10991 10990 10990 10990 10990 10990 10989 10987 10986 10985 10984 10983 10982 10981 10979 10978 10977 10975 10973 10971 10968 10965 10962 10960 10958 10956 10954 10952 10950 10949 10947 10944 10942 10939 10937 10935 10933 10930 10927 10925 10922 10919 10917 10914 10911 10909 10907 10905 10904 10904 10903 10902 10902 10903 10903 10903 10903 10903 10904 10904 10902 10902 10902 10900 10899 10898 10896 10895 10893 10891 10889 10887 10885
10980 10981 10982 10983 10985 10986 10987 10988 10989 10989 10989 10989 10988 10988 10987 10987 10986 10986 10985 10984 10983 10982 10981 10980 10979 10978 10977 10976 10974 10972 10970 10968 10965 10962 10960 10957 10955 10953 10951 10950 10948 10947 10945 10944 10942 10939 10936 10934 10932 10930 10927 10924 10922 10920 10918 10915 10912 10910 10908 10906 10904 10903 10903 10902 10902 10902 10902 10902 10902 10902 10902 10902 10901 10900 10899 10898 10897 10896 10894 10892 10890 10888 10886 10883 10881
10977 10978 10979 10981 10982 10983 10984 10984 10985 10986 10986 10986 10985 10985 10985 10984 10983 10983 10982 10981 10980 10979 10978 10977 10976 10975 10974 10973 10971 10969 10967 10965 10962 10960 10957 10955 10953 10951 10949 10948 10946 10945 10944 10942 10940 10938 10935 10933 10931 10929 10926 10924 10921 10919 10918 10916 10913 10911 10909 10907 10905 10904 10903 10902 10901 10902 10902 10901 10900 10900 10900 10900 10899 10897 10896 10895 10894 10893 10891 10889 10887 10885 10882 10880 10877
10974 10975 10977 10978 10979 10980 10981 10981 10982 10982 10982 10982 10982 10982 10982 10981 10980 10979 10978 10978 10977 10976 10975 10974 10973 10972 10970 10969 10968 10966 10964 10962 10960 10957 10955 10953 10951 10949 10948 10946 10945 10943 10942 10940 10938 10936 10933 10931 10930 10928 10926 10923 10920 10918 10916 10915 10912 10911 10909 10908 10906 10904 10904 10903 10901 10900 10900 10900 10899 10897 10896 10896 10896 10894 10892 10891 10891 10890 10888 10886 10884 10881 10879 10876 10874
10971 10972 10973 10975 10976 10977 10978 10978 10979 10979 10979 10979 10979 10979 10979 10978 10977 10976 10975 10974 10974 10973 10972 10971 10970 10969 10967 10966 10964 10962 10960 10959 10957 10955 10953 10951 10950 10948 10946 10944 10943 10942 10940 10938 10936 10933 10931 10928 10927 10925 10924 10922 10918 10915 10914 10913 10911 10910 10909 10908 10906 10905 10904 10903 10901 10900 10899 10900 10899 10897 10894 10892 10892 10891 10888 10888 10888 10886 10884 10882 10879 10877 10874 10872 10870
10968 10969 10970 10972 10973 10974 10975 10975 10975 10976 10976 10976 10976 10976 10976 10975 10974 10972 10972 10971 10970 10969 10968 10967 10966 10965 10964 10962 10960 10959 10957 10955 10954 10952 10950 10949 10947 10946 10944 10942 10940 10939 10938 10936 10934 10931 10928 10926 10924 10921 10919 10919 10917 10913 10912 10911 10909 10908 10907 10906 10905 10904 10903 10902 10900 10899 10898 10898 10897 10896 10893 10890 10890 10888 10886 10885 10884 10881 10879 10877 10875 10873 10870 10868 10866
10964 10966 10968 10969 10970 10970 10971 10971 10972 10972 10973 10973 10973 10972 10972 10971 10970 10969 10968 10967 10966 10965 10964 10964 10962 10961 10960 10958 10956 10955 10953 10952 10950 10949 10948 10946 10944 10943 10941 10939 10937 10937 10936 10934 10931 10929 10926 10924 10922 10918 10915 10915 10914 10912 10910 10909 10907 10905 10905 10904 10902 10901 10902 10901 10898 10897 10897 10896 10895 10895 10893 10889 10887 10885 10882 10880 10878 10876 10873 10871 10870 10867 10865 10863 10861
10961 10963 10964 10965 10966 10967 10968 10968 10968 10968 10969 10970 10969 10968 10968 10967 10966 10965 10964 10964 10963 10962 10961 10960 10958 10957 10956 10954 10953 10951 10950 10949 10947 10946 10945 10943 10941 10940 10938 10935 10933 10933 10932 10930 10928 10925 10922 10920 10918 10915 10912 10910 10910 10908 10905 10904 10903 10901 10901 10901 10898 10898 10899 10898 10896 10895 10895 10894 10893 10892 10891 10886 10882 10880 10877 10873 10872 10869 10866 10864 10863 10861 10859 10856 10855
10958 10959 10960 10961 10963 10964 10964 10964 10964 10965 10966 10966 10965 10964 10963 10962 10962 10961 10960 10960 10959 10958 10957 10956 10954 10953 10952 10950 10948 10947 10947 10946 10945 10944 10942 10940 10938 10936 10934 10932 10929 10928 10927 10926 10923 10919 10917 10914 10911 10909 10907 10905 10904 10903 10900 10898 10898 10897 10897 10897 10893 10893 10897 10896 10894 10893 10893 10893 10893 10891 10889 10885 10879 10874 10871 10867 10865 10863 10860 10858 10857 10855 10852 10850 10848
10953 10954 10956 10958 10959 10960 10960 10960 10961 10962 10962 10962 10961 10960 10959 10958 10957 10957 10956 10956 10956 10955 10953 10951 10950 10949 10948 10946 10945 10943 10943 10943 10942 10941 10939 10937 10935 10934 10932 10929 10926 10924 10923 10921 10918 10914 10911 10908 10905 10903 10902 10899 10897 10896 10893 10891 10891 10892 10893 10893 10888 10887 10892 10893 10890 10891 10891 10890 10884 10879 10877 10874 10868 10862 10859 10857 10857 10857 10854 10853 10852 10850 10847 10845 10842
10949 10950 10951 10953 10954 10955 10956 10957 10958 10959 10958 10958 10957 10956 10955 10954 10953 10953 10952 10952 10952 10951 10949 10947 10946 10946 10944 10943 10941 10940 10939 10939 10938 10938 10937 10935 10933 10931 10930 10927 10923 10921 10920 10918 10915 10911 10907 10903 10899 10896 10895 10893 10891 10891 10888 10886 10885 10885 10886 10887 10883 10881 10884 10884 10882 10879 10875 10870 10864 10860 10861 10857 10848 10843 10842 10842 10846 10851 10850 10849 10847 10845 10843 10841 10838
10944 10946 10947 10948 10949 10951 10952 10953 10954 10954 10954 10953 10953 10952 10950 10949 10949 10949 10948 10948 10948 10946 10944 10943 10942 10942 10940 10939 10938 10936 10935 10935 10934 10934 10933 10932 10930 10928 10927 10925 10922 10919 10917 10915 10913 10909 10904 10898 10893 10890 10888 10886 10885 10884 10883 10881 10880 10879 10879 10879 10877 10874 10874 10873 10870 10863 10859 10857 10850 10844 10843 10841 10836 10834 10833 10834 10840 10847 10847 10844 10842 10840 10839 10837 10835